User: anonymous
Location: B
(0.0000°N, 0.0000°E)
Time: 16:46:09
(UTC+02:00)
Language:

Cosmos 1025 Rocket - Orbit

View from above orbital plane
View from above orbital plane
View from above satellite
View from above satellite

Ground track
Ground track

The orbit data is extracted from the following two-line orbital elements,

1 10974U 78067B   14112.77209697  .00000615  00000-0  66604-4 0  2705
2 10974 082.4832 179.2689 0017751 192.4286 307.2606 14.86548810936462
Epoch (UTC): 22 April 2014 18:31:49
Eccentricity: 0.0017751
inclination: 82.4832°
perigee height: 596 km
apogee height: 621 km
right ascension of ascending node: 179.2689°
argument of perigee: 192.4286°
revolutions per day: 14.86548810
mean anomaly at epoch: 307.2606°
orbit number at epoch: 93646

The dashed part of the orbit path shows where the satellite is in the earth's shadow,  

DLR